Location: Newark
(34.9500°N, 139.9667°E)
Time: 21:28:01
(UTC+00:00)

Transit 2A - Pass Details

Date: 11 December 2019
Orbit: 601 x 958 km, 66.7° (Epoch: 28 January)

Event Time Altitude Azimuth Distance (km) Brightness Sun altitude
Rises 06:38:25 0° 334° (NNW) 2,887 8.9 8.0°
Reaches altitude 10° 06:40:37 10° 335° (NNW) 2,004 8.1 7.6°
Maximum altitude 06:45:07 82° 63° (ENE) 668 5.8 6.8°
Drops below altitude 10° 06:50:00 10° 152° (SSE) 2,164 8.5 6.0°
Sets 06:52:27 0° 153° (SSE) 3,137 9.3 5.6°
